TELSTAR 12V

导读

**Telstar 12V(别称Telstar 12 Vantage),是由加拿大Telesat公司运营的商用通信卫星,于2015年11月24日在日本种子岛航天中心,通过H-IIA运载火箭发射升空。卫星由空客防务与航天公司基于Eurostar-3000平台制造,发射质量约4900千克,定轨西经15°地球静止轨道,设计服役寿命超15年,目前仍在役,主要提供跨区域通信与广播电视传输服务。**

Basic Information
目录编号:
41036
目录名称:
TELSTAR 12V
国际标识:
2015-068A
轨道中心:
EARTH
卫星名称:
TELSTAR 12V
卫星全名:
--
卫星状态:
在轨 (已飞行3858 天)
发射日期:
2015-11-24 UTC
国别 :
加拿大 (CA)
星等 :
--
Orbit Information
数据来源 国际轨道数据 AOE轨道数据
星历时间 2026-06-17T03:47:14+0800
22小时前
查看轨道信息
2026-06-17T05:00:00+0800
21小时前
查看轨道信息
半长轴 42164.953km 42165.009km
偏心率 0.0002139 0.0002133
轨道倾角 0.017° 0.013°
近地点辐角 73.459° 79.008°
升交点赤经 4.623° 357.664°
平近点角 108.817° 128.469°
近地点 35777.796km 35777.878km
远地点 35795.836km 35795.866km
周期 1436.108分钟 1436.111分钟
每日圈数 1.00271 1.002708
Detailed Information
使用方式:
暂无
2D Orbit Map
3D Orbit Map
Orbit Altitude Analysis Chart
Orbit Inclination Analysis Chart
Orbit Comprehensive Analysis Chart
View Comprehensive Chart